Wind_Speed
7 7 7 8 10 11 12 13 15 15 16 18 18 18 17 17 17 16 15 15 16 16 17 17 18 19 19 20 21 22 22 21 20 21 21 21 21 21 22 23 24 25 26 26
6 6 7 8 9 10 11 13 13 13 15 17 17 18 17 16 17 17 17 17 18 17 17 18 19 20 21 22 22 22 20 20 21 21 20 20 21 22 24 24 25 25 26 27
6 6 7 8 10 10 11 12 12 14 15 16 18 18 17 17 17 17 18 19 19 18 18 18 19 20 21 20 20 20 20 21 20 20 20 21 22 23 24 24 25 25 27 27
6 6 7 9 10 11 11 12 14 15 15 16 17 17 17 18 18 17 19 19 18 19 19 19 19 19 20 19 19 19 20 19 20 20 21 22 23 24 24 24 25 25 25 25
6 7 8 9 9 11 12 13 15 16 16 16 17 17 16 17 19 19 19 20 19 19 19 18 19 20 19 18 19 20 19 19 20 21 21 22 23 24 24 24 25 25 25 25
7 8 10 10 10 12 14 15 15 14 15 16 16 17 15 16 17 19 19 19 19 18 18 20 19 18 18 18 18 18 19 19 19 20 21 22 23 23 23 24 25 26 26 26
8 9 10 11 12 12 13 14 15 14 15 15 16 18 17 17 17 17 17 18 18 18 18 19 19 17 18 18 18 17 17 18 19 19 20 21 21 22 23 24 25 25 26 25
10 9 10 12 13 14 14 15 16 16 15 15 17 18 17 18 17 17 16 17 17 19 19 19 19 18 18 18 18 18 18 18 19 19 20 21 22 23 23 24 24 24 25 24
15 13 12 13 14 15 15 17 18 18 17 17 17 17 18 19 18 18 19 18 18 17 17 17 17 17 17 17 18 19 19 20 20 20 20 21 22 23 23 23 24 24 24 24
17 16 14 15 16 16 18 18 19 20 20 19 18 18 18 18 18 18 18 17 16 16 16 16 16 17 18 18 18 19 20 20 21 21 21 21 22 23 23 23 23 24 23 23
17 18 16 15 16 17 18 18 19 20 20 19 18 16 16 17 16 15 15 15 14 14 14 14 15 16 17 17 17 18 20 20 20 20 21 21 21 22 22 22 22 22 21 20
17 18 18 17 17 18 19 18 18 19 19 18 17 16 15 15 14 15 15 15 14 14 15 14 14 15 16 17 18 18 19 20 20 20 21 21 20 21 21 21 21 20 19 19
19 20 19 18 18 18 18 17 17 18 19 19 18 17 16 15 15 16 17 17 16 16 16 14 15 16 16 17 17 18 19 19 20 20 21 21 21 20 20 20 19 19 19 18
20 20 20 19 18 18 17 17 18 19 18 18 18 18 17 16 16 16 16 16 16 16 16 16 16 15 15 16 17 17 18 18 19 19 19 19 19 19 19 18 18 18 18 18
21 20 20 20 18 18 17 16 17 18 18 19 18 18 17 16 15 16 16 15 14 14 15 15 15 14 15 15 16 16 17 18 17 18 18 18 17 17 17 17 17 17 17 17
22 20 20 19 17 18 17 15 16 17 18 18 18 17 17 16 15 15 16 16 15 14 14 14 14 13 14 15 15 15 16 16 16 16 16 15 15 15 15 15 16 17 17 17
22 20 19 19 18 17 15 14 15 16 17 18 18 16 16 15 14 14 15 14 14 13 13 12 13 13 13 14 15 14 14 15 14 14 14 14 14 15 15 16 16 17 17 17
23 21 20 20 20 18 15 15 15 16 16 16 15 15 13 13 13 13 14 13 13 13 12 12 12 12 13 13 13 13 13 13 13 13 13 14 15 15 15 15 15 16 16 17
21 20 20 20 20 18 16 15 15 15 16 15 15 14 13 12 12 11 13 13 13 12 12 12 12 12 12 12 11 11 12 12 13 12 13 13 14 14 14 14 15 16 15 15
19 19 20 20 19 18 15 15 15 15 15 14 14 13 13 13 12 11 13 13 12 12 11 11 11 12 12 11 11 10 11 11 11 11 12 12 12 13 13 14 15 15 15 15
19 20 21 20 19 17 15 15 16 15 15 14 14 14 13 13 12 11 11 11 12 11 11 10 10 10 10 10 10 9 9 9 9 10 10 10 10 11 12 13 13 14 14 15
19 20 20 20 18 15 14 15 15 14 15 14 14 13 13 13 12 12 11 11 11 11 10 10 9 9 9 8 8 8 7 7 7 8 9 10 10 11 12 12 13 14 14 15
19 18 19 17 16 15 15 14 14 14 14 14 13 12 12 12 12 12 11 10 10 9 8 8 7 7 7 6 5 6 6 7 7 8 9 9 10 11 11 13 14 15 15 15
19 18 18 17 16 15 14 14 15 14 14 13 12 11 11 11 11 10 9 9 8 7 6 6 6 6 5 4 4 6 6 7 7 8 8 8 9 11 12 13 14 14 15 15
17 18 19 17 15 16 14 14 14 14 13 12 10 10 10 10 9 8 6 6 6 5 5 5 5 5 4 3 3 4 5 6 7 7 7 8 9 11 12 13 14 14 15 15
17 18 19 18 18 17 15 14 13 13 11 10 10 9 9 8 7 6 5 4 4 4 4 4 3 2 2 2 2 3 4 6 7 7 7 8 9 11 12 13 14 15 15 16
Wind_Direction
206 218 233 245 250 256 262 263 258 258 259 264 267 271 271 271 274 278 282 285 286 285 289 290 291 294 296 296 297 293 291 291 288 291 291 293 296 297 296 296 296 295 293 293
216 227 245 255 257 266 271 273 269 263 265 266 269 269 269 269 273 276 281 284 284 282 285 288 292 291 292 293 294 292 291 292 289 290 293 294 297 298 299 298 297 296 296 296
233 238 250 260 265 269 273 275 275 275 274 271 274 270 265 266 271 276 281 285 288 285 284 287 291 292 294 293 292 293 294 295 294 293 294 296 297 299 301 300 301 300 298 297
251 248 258 268 269 269 271 277 280 278 275 275 273 272 271 272 274 277 278 284 283 285 285 288 287 290 294 294 292 290 293 292 293 294 295 296 297 300 302 301 302 302 302 299
273 271 272 277 275 272 277 278 278 276 274 275 276 277 279 282 280 279 280 284 284 285 287 289 288 293 293 293 293 291 291 293 294 294 296 296 297 301 303 304 304 304 304 301
280 283 282 278 277 276 276 276 277 279 277 274 279 282 282 283 284 284 282 284 284 284 288 289 291 292 293 293 293 293 293 295 295 294 296 296 298 302 304 306 306 306 305 303
280 283 280 279 276 272 276 279 279 277 276 277 280 281 285 285 284 284 283 282 282 282 285 289 292 293 293 293 292 289 292 294 294 295 297 298 301 302 304 306 306 305 304 305
283 276 279 281 282 278 278 281 283 284 283 283 282 284 288 291 289 284 285 284 286 285 281 282 287 288 290 293 295 297 300 299 298 298 297 299 301 301 303 305 305 304 303 304
283 279 277 282 285 282 283 284 284 286 288 288 287 286 289 293 293 289 291 289 289 289 283 282 285 286 289 291 294 297 299 297 301 300 299 300 302 303 303 305 306 305 304 304
280 280 276 276 279 282 283 286 281 284 290 290 289 291 292 292 295 291 292 293 293 291 288 286 282 285 290 291 292 294 295 298 300 302 302 302 304 306 307 306 306 306 305 304
279 277 275 272 274 281 281 279 279 281 284 289 291 291 296 292 294 293 294 292 290 293 290 290 289 287 288 292 295 296 296 298 299 301 303 304 306 307 308 307 309 309 310 307
278 277 276 275 273 273 277 277 277 279 283 286 289 294 297 297 298 298 298 298 299 298 295 296 297 297 295 294 295 296 297 298 299 301 303 305 307 308 311 312 311 312 313 311
275 275 276 274 274 274 272 273 276 278 279 283 288 295 297 300 301 302 301 299 298 299 297 296 298 299 299 298 297 296 299 299 301 302 304 305 307 309 311 313 312 314 315 314
272 273 274 275 275 275 270 274 274 276 279 282 285 290 292 297 297 298 300 298 298 297 297 299 300 299 301 299 298 298 297 299 301 304 305 305 308 309 311 315 315 317 317 316
267 268 270 271 271 272 274 278 278 277 277 279 282 286 290 293 293 298 298 298 302 298 299 299 298 297 301 303 303 302 300 300 303 306 308 309 310 310 313 316 318 319 319 317
264 264 264 264 268 272 273 277 276 276 275 277 280 284 288 290 290 294 296 298 298 298 299 299 298 300 302 304 307 308 306 306 307 309 311 313 314 314 316 318 321 321 319 320
261 260 263 264 266 273 273 279 281 281 281 279 280 286 287 289 291 294 295 298 298 298 299 299 298 300 302 305 308 309 309 309 310 313 315 316 315 316 318 320 322 324 324 323
260 260 264 266 267 272 279 278 280 283 285 282 285 289 292 290 294 297 297 299 298 296 295 297 300 303 306 308 309 311 311 309 309 312 317 317 316 317 321 322 326 328 328 326
261 262 261 265 268 272 274 277 278 282 284 284 286 291 294 292 295 297 298 299 298 295 295 299 303 307 310 311 312 314 313 313 312 312 316 319 320 321 324 328 330 331 332 332
256 257 257 261 266 271 273 278 282 282 282 282 285 289 293 294 294 294 292 293 295 294 295 298 303 307 308 310 315 316 315 316 316 317 321 323 325 325 328 332 333 335 335 337
250 251 256 260 265 270 272 279 280 277 279 283 285 287 291 293 294 291 288 289 293 294 293 295 299 304 310 313 316 317 317 322 325 328 332 332 332 333 333 334 336 339 341 342
249 252 258 262 264 270 274 279 278 275 276 281 286 288 291 291 288 289 289 291 293 293 294 295 300 306 310 313 316 319 324 330 335 336 338 339 340 341 341 342 342 343 343 342
247 253 258 260 264 267 268 272 274 274 277 280 282 286 289 292 291 288 290 291 291 291 291 294 300 310 310 309 315 323 332 336 336 337 340 343 346 347 347 347 346 345 344 343
244 252 256 257 258 265 264 264 270 270 274 276 278 284 289 290 289 288 287 286 290 290 292 294 300 309 304 297 307 320 331 337 336 338 343 346 349 351 349 347 347 347 347 346
245 252 253 254 257 261 261 265 268 270 271 273 274 280 283 283 279 279 281 287 291 291 291 293 301 305 305 304 319 331 339 341 342 342 343 346 347 348 347 347 349 349 348 347
240 246 249 248 251 253 254 256 260 263 265 270 270 273 274 271 263 269 279 288 290 292 294 292 295 303 318 332 333 341 349 348 350 348 348 350 350 351 350 350 351 351 349 348
Height
5854 5856 5856 5857 5857 5857 5857 5856 5856 5857 5857 5856 5856 5856 5857 5857 5857 5857 5856 5855 5856 5855 5855 5854 5853 5851 5849 5848 5846 5845 5843 5841 5839 5838 5836 5834 5832 5830 5827 5825 5822 5819 5817 5814
5854 5854 5855 5854 5854 5854 5853 5853 5853 5853 5853 5853 5852 5852 5853 5853 5853 5852 5851 5851 5851 5851 5850 5849 5848 5847 5845 5843 5841 5839 5838 5836 5835 5833 5832 5830 5828 5825 5822 5820 5817 5814 5811 5808
5851 5852 5851 5851 5852 5851 5851 5851 5850 5850 5849 5849 5849 5848 5849 5849 5847 5847 5847 5846 5846 5846 5846 5845 5844 5842 5840 5838 5836 5835 5833 5831 5830 5829 5827 5825 5823 5820 5817 5814 5811 5808 5805 5802
5849 5849 5849 5848 5848 5848 5848 5848 5847 5846 5845 5844 5844 5843 5844 5843 5842 5842 5842 5841 5841 5841 5841 5840 5839 5836 5834 5833 5832 5830 5829 5828 5826 5824 5822 5820 5818 5815 5812 5809 5806 5802 5799 5796
5847 5847 5846 5845 5845 5845 5845 5844 5844 5843 5841 5841 5840 5839 5840 5838 5838 5838 5837 5837 5836 5836 5836 5835 5834 5832 5830 5828 5827 5825 5824 5823 5821 5819 5817 5815 5812 5810 5806 5803 5800 5797 5793 5790
5846 5845 5844 5843 5843 5843 5842 5841 5840 5839 5838 5838 5837 5836 5835 5834 5834 5833 5832 5832 5831 5831 5831 5830 5829 5827 5825 5824 5822 5820 5819 5817 5815 5814 5812 5809 5807 5804 5801 5797 5794 5791 5787 5784
5843 5842 5841 5841 5840 5840 5839 5838 5837 5836 5835 5834 5834 5832 5832 5830 5830 5829 5828 5827 5827 5826 5826 5825 5824 5822 5821 5819 5817 5815 5813 5812 5810 5808 5806 5804 5801 5798 5795 5792 5788 5785 5781 5778
5840 5840 5839 5838 5837 5836 5835 5835 5834 5832 5831 5831 5830 5828 5828 5826 5825 5824 5823 5822 5822 5821 5821 5820 5819 5817 5816 5814 5812 5809 5808 5807 5805 5803 5801 5798 5796 5793 5790 5786 5783 5779 5776 5773
5835 5835 5835 5834 5833 5833 5832 5831 5829 5828 5827 5826 5825 5825 5824 5822 5820 5819 5818 5817 5817 5816 5815 5815 5813 5812 5811 5809 5807 5806 5804 5802 5799 5797 5795 5793 5790 5787 5784 5781 5777 5773 5770 5767
5830 5830 5831 5831 5830 5829 5828 5827 5825 5824 5822 5821 5821 5820 5820 5817 5816 5814 5813 5812 5812 5811 5810 5809 5807 5806 5805 5804 5803 5801 5799 5797 5795 5792 5790 5787 5784 5781 5778 5774 5771 5767 5764 5760
5826 5825 5826 5826 5825 5824 5824 5822 5820 5819 5818 5817 5815 5818 5816 5813 5812 5811 5809 5808 5807 5806 5805 5804 5803 5801 5800 5799 5797 5796 5794 5792 5790 5788 5785 5782 5779 5776 5773 5769 5766 5762 5758 5754
5822 5821 5820 5821 5820 5819 5818 5817 5816 5816 5814 5813 5812 5814 5811 5809 5808 5807 5806 5804 5803 5802 5800 5799 5797 5796 5795 5794 5792 5791 5789 5787 5785 5783 5780 5777 5774 5771 5768 5764 5761 5757 5754 5750
5817 5816 5815 5816 5817 5815 5813 5812 5811 5810 5810 5809 5808 5810 5806 5805 5804 5803 5802 5800 5799 5797 5796 5794 5793 5792 5791 5789 5787 5785 5783 5782 5780 5778 5775 5772 5769 5766 5763 5760 5757 5754 5750 5747
5811 5811 5811 5811 5810 5809 5809 5808 5807 5806 5804 5804 5804 5803 5802 5801 5800 5799 5798 5796 5794 5793 5791 5790 5789 5788 5787 5784 5782 5780 5779 5777 5775 5773 5770 5768 5765 5762 5759 5756 5753 5750 5747 5744
5806 5806 5805 5805 5805 5804 5804 5803 5802 5801 5800 5799 5799 5798 5798 5797 5796 5795 5794 5792 5791 5789 5788 5787 5786 5784 5782 5780 5778 5776 5774 5772 5771 5768 5766 5764 5761 5759 5756 5753 5750 5747 5744 5741
5799 5799 5800 5800 5800 5799 5799 5798 5797 5797 5796 5795 5794 5794 5793 5792 5792 5791 5790 5788 5787 5785 5784 5783 5781 5780 5778 5776 5774 5772 5770 5768 5766 5765 5762 5760 5758 5755 5753 5750 5747 5744 5741 5737
5793 5794 5794 5795 5795 5794 5795 5794 5793 5792 5791 5791 5790 5790 5789 5788 5787 5786 5785 5783 5782 5781 5780 5779 5777 5776 5774 5773 5770 5768 5766 5764 5763 5761 5759 5757 5755 5752 5750 5747 5744 5741 5737 5734
5787 5787 5787 5788 5790 5789 5792 5789 5788 5787 5787 5786 5786 5785 5784 5783 5783 5781 5780 5779 5778 5777 5776 5775 5773 5772 5770 5768 5767 5765 5763 5761 5760 5758 5756 5754 5752 5749 5747 5744 5741 5738 5735 5732
5780 5781 5782 5782 5783 5784 5786 5785 5784 5783 5782 5782 5781 5780 5780 5778 5778 5777 5776 5775 5774 5773 5772 5770 5769 5768 5767 5765 5763 5762 5760 5758 5756 5755 5753 5751 5749 5746 5744 5741 5739 5736 5732 5729
5774 5775 5777 5777 5777 5778 5782 5780 5779 5779 5778 5778 5777 5776 5775 5774 5773 5774 5772 5772 5770 5769 5768 5767 5766 5764 5763 5762 5760 5758 5757 5755 5754 5752 5750 5749 5746 5744 5741 5739 5736 5733 5730 5727
5768 5769 5770 5771 5771 5773 5775 5774 5774 5775 5775 5774 5772 5772 5771 5770 5770 5769 5768 5767 5766 5765 5764 5763 5762 5761 5760 5759 5757 5756 5754 5753 5752 5750 5748 5746 5744 5742 5739 5737 5734 5731 5728 5725
5762 5764 5765 5766 5767 5771 5770 5769 5770 5770 5769 5768 5768 5767 5766 5765 5765 5765 5764 5763 5762 5761 5760 5760 5759 5758 5757 5756 5755 5754 5752 5751 5750 5748 5747 5745 5743 5740 5738 5735 5733 5730 5727 5724
5757 5759 5759 5762 5764 5764 5764 5764 5764 5764 5764 5764 5763 5763 5762 5761 5761 5760 5760 5759 5758 5758 5757 5756 5756 5755 5754 5753 5753 5752 5751 5750 5748 5747 5745 5743 5741 5739 5737 5734 5731 5728 5725 5722
5751 5752 5753 5755 5757 5757 5758 5758 5758 5759 5759 5759 5758 5758 5758 5757 5757 5756 5756 5755 5755 5754 5754 5754 5753 5753 5752 5751 5751 5750 5749 5748 5747 5745 5744 5742 5740 5738 5736 5733 5730 5727 5724 5721
5745 5746 5747 5749 5751 5752 5754 5754 5754 5755 5755 5755 5755 5754 5754 5754 5753 5753 5752 5752 5752 5751 5751 5751 5751 5750 5750 5750 5749 5749 5748 5747 5745 5744 5742 5741 5739 5737 5735 5732 5729 5726 5723 5719
5740 5740 5741 5744 5746 5747 5749 5749 5749 5750 5751 5751 5751 5751 5751 5751 5751 5750 5750 5750 5749 5749 5749 5749 5749 5749 5749 5749 5748 5748 5747 5746 5744 5743 5741 5740 5738 5736 5734 5731 5728 5725 5722 5718